Submittal Forms
Current Contests
Recent Contests

Club Activity Tracker - Contest Group du Quebec (from club selection on form)

Recent postings for the selected club or group are listed below. Other than the call used, all calls listed are only those associated with the club or group. Click on a call to see the details of the posting.
Status Key: new=new posting, update=update prior posting, move=change club/group, delete=delete prior posting.

Sort by   for past

TimestampCallContestClassPowerScoreStatus
2020-05-20 20:02:33VE2AXOCWopsTSingle OpHP961new5593
2020-05-20 20:01:28VE2FKCWopsTSingle OpHP6,640new5593
2020-05-20 14:04:07VE2BZOCWopsTSingle OpLP504new5592
2020-05-17 17:54:39VE2FKKing of Spain CWSOABHP3,135new5583
2020-05-16 23:40:55VE2FKHamventionSingle OpHP152new5569
2020-05-13 20:06:10VE2BZOCWopsTSingle OpLP576new5575
2020-05-13 20:01:51VE2AXOCWopsTSingle OpHP1,369new5575
2020-05-13 20:00:28VE2FDCWopsTSingle OpLP196new5575
2020-05-13 19:36:16VE2FKCWopsTSingle OpHP3,660new5575
2020-05-13 14:02:45VE2AXOCWopsTSingle OpHP1,521new5574
 
2020-05-13 13:46:08VE2FKCWopsTSingle OpHP4,624new5574
2020-05-11 17:43:24VA2FW50SprngSprntSingle OpLP16update5567
2020-05-11 00:03:22VE2AXOVolta RTTYSOABHP31,562,440new5563
2020-05-10 13:43:43VE2FKCQ-MSOABCWHP28,875new5564
2020-05-07 03:18:06VE2FKCWopsTSingle OpHP506new5559
2020-05-06 20:05:29VE2BZOCWopsTSingle OpLP462new5558
2020-05-06 20:01:40VE2AXOCWopsTSingle OpHP676new5558
2020-05-06 20:01:01VE2FKCWopsTSingle OpHP12,305new5558
2020-05-06 14:04:39VE2BZOCWopsTSingle OpLP675new5557
2020-05-06 14:01:47VE2AXOCWopsTSingle OpHP1,764new5557
 
2020-05-06 13:38:02VE2FKCWopsTSingle OpHP2,025new5557
2020-05-04 00:47:24VE2FKNewEngQPSingle OpHP66,990new5547
2020-04-30 03:33:08VE2FKCWopsTSingle OpHP2,601new5537
2020-04-29 20:03:05VE2BZOCWopsTSingle OpLP100new5536
2020-04-29 20:01:45VE2AXOCWopsTSingle OpHP1,849new5536
2020-04-29 20:01:37VE2FKCWopsTSingle OpHP14,238new5536
2020-04-29 14:03:44VE2BZOCWopsTSingle OpLP380new5535
2020-04-29 13:58:59VE2AXOCWopsTSingle OpHP1,225new5535
2020-04-29 13:23:42VE2FKCWopsTSingle OpHP756new5535
2020-04-27 13:49:04VE2FKSPDX RTTYSOABHP82,056new5520
2020-04-26 20:56:19VE2FKBARTG 75SO ExpertHP891new